NOAA 16 DEB, 41290

Orbit data source: Space-Track

NOAA 16 DEB, 41290 is space debris in SSO originally from a launch on Thu, 21 Sep 2000 UTC launched from the Air Force Western Test Range (AFWTR). Debris objects in space refer to the collection of defunct objects orbiting the Earth. Examples of debris include non-operational satellites, rocket bodies, and fragments generated from explosions, collisions, or faulty payload assembly.

Loading next visibility...
NOAA 16 DEB details
Identifier
41290, 2000-055GS
Orbit
SSO
Last TLE update6 hours ago
Origin
Flag of USNOAA (US)
ManufacturerUnknown
MissionSpacecraft
Bus & MotorUnknown
MassUnknown
Launch date (UTC)
2000-09-21 (24 years ago)
Launch vehicleUnknown
Launch site
Air Force Western Test Range (AFWTR)
Object type
Payload
Rocket body
Debris
Shape & HBRUnknown
Radar Cross SectionSmall (<0.1 m²)

Expand to show TLE details & history

TLE from 6 hours ago
0 NOAA 16 DEB
1 41290U 00055GS  24361.38053710  .00028789  00000-0  74438-2 0  9991
2 41290  99.0258 190.3005 0021807 304.2587  55.6539 14.49675613468148
Epoch: 2024-12-26T09:07Z
Definitive object data (Epoch: 2024-12-26T09:07:58.405Z)
Latitude-0.00005°
Longitude-42.05361°
Altitude720.933 km
Speed7.5 km/s
True Right ascension12h 41m 12s
True Declination0° 00' 00"
Sunlit
Object was in daylight at TLE epoch
Visualization TLE readout
Latitude-27.08926°
Longitude133.57516°
Altitude738.439 km
Speed7.484 km/s
Apparent Right ascension01h 16m 33s
Apparent Declination-33° 54' 29"
Sunlit
Object is in daylight
Visualization observer readout
Local Sidereal Time14:25:22
Azimuth71.773° E
Elevation-75.022°
Doppler factor1
Orbital elements
Apogee altitude739.33 km
Perigee altitude708.356 km
Semi-major axis7,101.98 km
Eccentricity0.0021807
Inclination99.0258°
RAAN190.3005°
Arg. of periapsis304.2587°
True anomaly55.86054°
Mean anomaly55.6539°
Eccentric anomaly55.75719°
Mean motion3.62639 °/min
BSTAR0.0074438
Orbital period99.27 mins
Loading maneuver chart data...
Loading historical data...
Loading historical data...
Loading historical data...
Loading historical data...
Loading historical data...
Loading historical data...
Loading historical data...

NOAA 16 DEB Visibility forecast

Observer location: undefined°, undefined

Span
Click to sort rows by Start time (UTC) header in descending order
Start Az.
Max El. time (UTC)
Max El. Az.
Max El.
End time (UTC)
End Az.
6 mins2024-12-27 00:38:26.330Z51.685° ENE2024-12-27 00:41:26.330Z90.972° ESE17.828°2024-12-27 00:44:26.330Z132.53° SE
8 mins2024-12-27 02:16:26.330Z356.43° N2024-12-27 02:20:26.330Z271.271° WNW35.307°2024-12-27 02:24:26.330Z217.749° SW
5 mins2024-12-27 11:48:26.330Z98.561° ESE2024-12-27 11:50:26.330Z64.261° ENE22.086°2024-12-27 11:53:26.330Z19.596° NNE
7 mins2024-12-27 13:25:26.330Z205.303° SW2024-12-27 13:28:26.330Z265.675° W30.954°2024-12-27 13:32:26.330Z326.963° NNW
|